Terminal Aerodrome Forecast
Issued by NWS

Home | Current Version | Previous Version | Graphics & Text | Print | Product List | Glossary On
Versions: 1 2 3 4 5 6 7 8 9 10 11 12 13 14 15 16 17 18 19 20 21
000
FTUS42 KMHX 221100 AAA
TAFPGV
TAF AMD
KPGV 221102Z 2211/2306 00000KT 5SM BR BKN250
      TEMPO 2211/2212 2SM BR
     FM221200 27003KT P6SM BKN250
     FM221800 27005KT P6SM VCTS SCT050CB
      AMD LTD TO CLD VIS AND WIND=

USA.gov is the U.S. government's official web portal to all federal, state and local government web resources and services.